RAPIS-1 (43932 NORAD) Tracking and Keplerian Element Data

This shows tracking and keplerian element data for the satellite.

Feedback or suggestion? Click here.




ElementValue
Catalog43932
NameRAPIS-1
Epoch Orbit29798
Epoch Day160.22709007
Epoch Year2024
RAAN147.8742
Inclination97.194
Eccentricity0.0006613
Argument of Perigee97.7807
Mean Anonmoly262.4195
Mean Motion15.4898002
Decay Rate0.00099671
L11 43932U 19003A 24160.22709007 .00099671 00000+0 18232-2 0 9993
L22 43932 97.1940 147.8742 0006613 97.7807 262.4195 15.48980020297981



Live tracking and technical data element details for RAPIS-1 (NORAD 43932). RAPIS-1 can be tracked NOW for your location showing map with azimuth and elevation plus other details from your city location.







IsCatalogInMostPopularTable: catalog: 43932, numindb: 404
Update: records affected: 1



GetName: 43932 RAPIS-1

Hit Count: updated at: Thu, 21 May 2026 11:34:54 GMT